Tracking 18942 objects as of 18-Jan-2018
HD Live streaming from Space Station
objects crossing your sky now

FENGYUN 1C DEB

Track FENGYUN 1C DEB now!
10-day predictions


NORAD ID: 31256
Int'l Code: 1999-025BMN
Perigee: 692.1 km
Apogee: 1,275.8 km
Inclination: 98.7 °
Period: 104.6 minutes
Semi major axis: 7354 km
RCS: 0.0012 m2 (small)
Launch date: May 10, 1999
Source: People's Republic of China (PRC)
Launch site: Taiyaun Space Center, China (TSC)

Note: This is SATELLITE DEBRIS
aabbcc
Your satellite tracking list
Your tracking list is empty




NASA's NSSDC Master Catalog

Two Line Element Set (TLE):
1 31256U 99025BMN 18017.48071946  .00001323  00000-0  78047-3 0  9996
2 31256  98.6770  33.3102 0396821  35.5110 327.1776 13.76358141538639
Source of the keplerian elements: AFSPC